Time,TemperatureF,DewpointF,PressureIn,WindDirection,WindDirectionDegrees,WindSpeedMPH,WindSpeedGustMPH,Humidity,HourlyPrecipIn,Conditions,Clouds,dailyrainin,SoftwareType,DateUTC
2013-01-16 00:04:00,43.0,-99.9,-100.00,ESE,104,2.0,4.0,7,0.01,,,-99.99,,2013-01-16 05:04:00,
2013-01-16 00:12:00,43.0,-99.9,-100.00,ESE,104,2.0,4.0,7,0.01,,,-99.99,,2013-01-16 05:12:00,
2013-01-16 00:23:00,43.0,42.0,-100.00,ESE,103,2.0,4.0,98,0.00,,,-99.99,,2013-01-16 05:23:00,
2013-01-16 00:33:00,43.0,42.0,-100.00,ESE,103,2.0,4.0,98,0.00,,,-99.99,,2013-01-16 05:33:00,
2013-01-16 00:42:00,43.0,42.0,-100.00,ESE,103,2.0,4.0,98,0.00,,,-99.99,,2013-01-16 05:42:00,
2013-01-16 00:53:00,43.0,42.0,-100.00,ESE,109,2.0,3.0,98,0.00,,,-99.99,,2013-01-16 05:53:00,
2013-01-16 01:03:00,43.0,42.0,-100.00,ESE,107,1.0,3.0,98,0.00,,,-99.99,,2013-01-16 06:03:00,
2013-01-16 01:12:00,43.0,42.0,-100.00,ESE,107,1.0,3.0,98,0.00,,,-99.99,,2013-01-16 06:12:00,
2013-01-16 01:22:00,43.0,42.0,-100.00,ESE,103,2.0,3.0,98,0.00,,,-99.99,,2013-01-16 06:22:00,
2013-01-16 01:33:00,43.0,42.0,-100.00,ESE,103,2.0,3.0,98,0.00,,,-99.99,,2013-01-16 06:33:00,
2013-01-16 01:43:00,43.0,42.0,-100.00,ESE,103,2.0,3.0,98,0.00,,,-99.99,,2013-01-16 06:43:00,
2013-01-16 01:53:00,43.0,42.0,-100.00,East,100,3.0,5.0,98,0.00,,,-99.99,,2013-01-16 06:53:00,
2013-01-16 02:02:00,42.0,42.0,-100.00,ESE,102,2.0,4.0,98,0.00,,,-99.99,,2013-01-16 07:02:00,
2013-01-16 02:12:00,42.0,42.0,-100.00,ESE,102,2.0,4.0,98,0.00,,,-99.99,,2013-01-16 07:12:00,
2013-01-16 02:22:00,42.0,42.0,-100.00,ESE,104,1.0,3.0,98,0.00,,,-99.99,,2013-01-16 07:22:00,
2013-01-16 02:33:00,42.0,42.0,-100.00,ESE,104,1.0,3.0,98,0.00,,,-99.99,,2013-01-16 07:33:00,
2013-01-16 02:42:00,42.0,42.0,-100.00,ESE,104,1.0,3.0,98,0.00,,,-99.99,,2013-01-16 07:42:00,
2013-01-16 02:52:00,42.0,42.0,-100.00,East,96,3.0,6.0,98,0.00,,,-99.99,,2013-01-16 07:52:00,
2013-01-16 03:02:00,42.0,42.0,-100.00,East,96,3.0,5.0,98,0.00,,,-99.99,,2013-01-16 08:02:00,
2013-01-16 03:12:00,42.0,42.0,-100.00,East,96,3.0,5.0,98,0.00,,,-99.99,,2013-01-16 08:12:00,
2013-01-16 03:22:00,42.0,42.0,-100.00,ESE,103,2.0,3.0,98,0.00,,,-99.99,,2013-01-16 08:22:00,
2013-01-16 03:32:00,42.0,42.0,-100.00,ESE,103,2.0,3.0,98,0.00,,,-99.99,,2013-01-16 08:32:00,
2013-01-16 03:42:00,42.0,42.0,-100.00,ESE,103,2.0,3.0,98,0.00,,,-99.99,,2013-01-16 08:42:00,
2013-01-16 03:53:00,42.0,42.0,-100.00,ENE,72,6.0,10.0,98,0.01,,,-99.99,,2013-01-16 08:53:00,
2013-01-16 04:02:00,41.0,41.0,-100.00,NE,56,8.0,11.0,98,0.00,,,-99.99,,2013-01-16 09:02:00,
2013-01-16 04:12:00,41.0,41.0,-100.00,NE,56,8.0,11.0,98,0.00,,,-99.99,,2013-01-16 09:12:00,
2013-01-16 04:22:00,41.0,40.0,-100.00,East,80,6.0,9.0,99,0.00,,,-99.99,,2013-01-16 09:22:00,
2013-01-16 04:32:00,41.0,40.0,-100.00,East,80,6.0,9.0,99,0.00,,,-99.99,,2013-01-16 09:32:00,
2013-01-16 04:42:00,41.0,40.0,-100.00,East,80,6.0,9.0,99,0.00,,,-99.99,,2013-01-16 09:42:00,
2013-01-16 04:53:00,41.0,40.0,-100.00,East,83,5.0,9.0,99,0.00,,,-99.99,,2013-01-16 09:53:00,
2013-01-16 05:02:00,40.0,40.0,-100.00,East,88,5.0,8.0,99,0.00,,,-99.99,,2013-01-16 10:02:00,
2013-01-16 05:12:00,40.0,40.0,-100.00,East,88,5.0,8.0,99,0.00,,,-99.99,,2013-01-16 10:12:00,
2013-01-16 05:22:00,40.0,40.0,-100.00,East,89,4.0,7.0,99,0.03,,,-99.99,,2013-01-16 10:22:00,
2013-01-16 05:32:00,40.0,40.0,-100.00,East,89,4.0,7.0,99,0.03,,,-99.99,,2013-01-16 10:32:00,
2013-01-16 05:43:00,40.0,40.0,-100.00,East,89,4.0,7.0,99,0.03,,,-99.99,,2013-01-16 10:43:00,
2013-01-16 05:53:00,40.0,39.0,-100.00,East,97,2.0,4.0,99,0.04,,,-99.99,,2013-01-16 10:53:00,
2013-01-16 06:02:00,40.0,39.0,-100.00,East,97,2.0,4.0,99,0.04,,,-99.99,,2013-01-16 11:02:00,
2013-01-16 06:12:00,40.0,39.0,-100.00,East,97,2.0,4.0,99,0.04,,,-99.99,,2013-01-16 11:12:00,
2013-01-16 06:23:00,40.0,39.0,-100.00,East,97,2.0,4.0,99,0.01,,,-99.99,,2013-01-16 11:23:00,
2013-01-16 06:33:00,40.0,39.0,-100.00,East,97,2.0,4.0,99,0.01,,,-99.99,,2013-01-16 11:33:00,
2013-01-16 06:42:00,40.0,39.0,-100.00,East,97,2.0,4.0,99,0.01,,,-99.99,,2013-01-16 11:42:00,
2013-01-16 06:53:00,40.0,39.0,-100.00,East,92,4.0,6.0,99,0.03,,,-99.99,,2013-01-16 11:53:00,
2013-01-16 07:03:00,40.0,39.0,-100.00,East,99,2.0,3.0,99,0.06,,,-99.99,,2013-01-16 12:03:00,
2013-01-16 07:13:00,40.0,39.0,-100.00,East,99,2.0,3.0,99,0.06,,,-99.99,,2013-01-16 12:13:00,
2013-01-16 07:22:00,40.0,39.0,-100.00,ESE,103,2.0,4.0,98,0.00,,,-99.99,,2013-01-16 12:22:00,
2013-01-16 07:33:00,40.0,39.0,-100.00,ESE,103,2.0,4.0,98,0.00,,,-99.99,,2013-01-16 12:33:00,
2013-01-16 07:43:00,40.0,39.0,-100.00,ESE,103,2.0,4.0,98,0.00,,,-99.99,,2013-01-16 12:43:00,
2013-01-16 07:53:00,39.0,39.0,-100.00,ESE,114,2.0,5.0,98,0.06,,,-99.99,,2013-01-16 12:53:00,
2013-01-16 08:03:00,40.0,39.0,-100.00,ESE,112,1.0,2.0,98,0.10,,,-99.99,,2013-01-16 13:03:00,
2013-01-16 08:12:00,40.0,39.0,-100.00,ESE,112,1.0,2.0,98,0.10,,,-99.99,,2013-01-16 13:12:00,
2013-01-16 08:23:00,40.0,40.0,-100.00,ESE,109,2.0,4.0,98,0.00,,,-99.99,,2013-01-16 13:23:00,
2013-01-16 08:33:00,40.0,40.0,-100.00,ESE,109,2.0,4.0,98,0.00,,,-99.99,,2013-01-16 13:33:00,
2013-01-16 08:43:00,40.0,40.0,-100.00,ESE,104,1.0,2.0,98,0.00,,,-99.99,,2013-01-16 13:43:00,
2013-01-16 08:53:00,40.0,40.0,-100.00,ESE,104,1.0,2.0,98,0.00,,,-99.99,,2013-01-16 13:53:00,
2013-01-16 09:03:00,40.0,40.0,-100.00,East,100,2.0,3.0,98,0.01,,,-99.99,,2013-01-16 14:03:00,
2013-01-16 09:12:00,40.0,40.0,-100.00,East,100,2.0,3.0,98,0.01,,,-99.99,,2013-01-16 14:12:00,
2013-01-16 09:23:00,40.0,40.0,-100.00,East,100,2.0,3.0,98,0.00,,,-99.99,,2013-01-16 14:23:00,
2013-01-16 09:33:00,40.0,40.0,-100.00,East,100,2.0,3.0,98,0.00,,,-99.99,,2013-01-16 14:33:00,
2013-01-16 09:40:00,41.0,40.0,-100.00,ESE,102,2.0,4.0,98,0.00,,,-99.99,,2013-01-16 14:40:00,
2013-01-16 09:43:00,40.0,40.0,-100.00,East,100,2.0,3.0,98,0.00,,,-99.99,,2013-01-16 14:43:00,
2013-01-16 09:53:00,41.0,40.0,-100.00,ESE,107,3.0,5.0,98,0.00,,,-99.99,,2013-01-16 14:53:00,
2013-01-16 10:03:00,41.0,40.0,-100.00,ESE,102,2.0,4.0,98,0.00,,,-99.99,,2013-01-16 15:03:00,
2013-01-16 10:12:00,41.0,40.0,-100.00,ESE,102,2.0,4.0,98,0.00,,,-99.99,,2013-01-16 15:12:00,
2013-01-16 10:23:00,41.0,40.0,-100.00,ESE,102,2.0,4.0,98,0.00,,,-99.99,,2013-01-16 15:23:00,
2013-01-16 10:33:00,41.0,40.0,-100.00,ESE,102,2.0,4.0,98,0.00,,,-99.99,,2013-01-16 15:33:00,
2013-01-16 10:53:00,41.0,40.0,-100.00,ESE,104,0.0,2.0,98,0.01,,,-99.99,,2013-01-16 15:53:00,
2013-01-16 11:04:00,41.0,40.0,-100.00,ESE,104,0.0,2.0,98,0.01,,,-99.99,,2013-01-16 16:04:00,
2013-01-16 11:12:00,41.0,40.0,-100.00,ESE,102,1.0,2.0,98,0.41,,,-99.99,,2013-01-16 16:12:00,
2013-01-16 11:22:00,41.0,40.0,-100.00,ESE,102,1.0,2.0,98,0.41,,,-99.99,,2013-01-16 16:22:00,
2013-01-16 11:33:00,41.0,40.0,-100.00,ENE,65,7.0,10.0,98,0.37,,,-99.99,,2013-01-16 16:33:00,
2013-01-16 11:43:00,41.0,40.0,-100.00,ENE,65,7.0,10.0,98,0.37,,,-99.99,,2013-01-16 16:43:00,
2013-01-16 11:53:00,40.0,40.0,-100.00,ENE,75,4.0,7.0,98,0.04,,,-99.99,,2013-01-16 16:53:00,
2013-01-16 12:03:00,40.0,40.0,-100.00,ENE,75,4.0,7.0,98,0.04,,,-99.99,,2013-01-16 17:03:00,
2013-01-16 12:12:00,40.0,40.0,-100.00,ESE,107,1.0,1.0,98,0.04,,,-99.99,,2013-01-16 17:12:00,
2013-01-16 12:23:00,40.0,40.0,-100.00,ESE,107,1.0,1.0,98,0.04,,,-99.99,,2013-01-16 17:23:00,
2013-01-16 12:33:00,41.0,40.0,-100.00,ESE,109,2.0,4.0,98,0.10,,,-99.99,,2013-01-16 17:33:00,
2013-01-16 12:44:00,41.0,40.0,-100.00,ESE,109,2.0,4.0,98,0.10,,,-99.99,,2013-01-16 17:44:00,
2013-01-16 12:53:00,41.0,41.0,-100.00,East,96,2.0,4.0,98,0.01,,,-99.99,,2013-01-16 17:53:00,
2013-01-16 13:03:00,42.0,41.0,-100.00,ESE,107,1.0,3.0,97,0.01,,,-99.99,,2013-01-16 18:03:00,
2013-01-16 13:13:00,42.0,41.0,-100.00,ESE,107,1.0,3.0,97,0.01,,,-99.99,,2013-01-16 18:13:00,
2013-01-16 13:23:00,42.0,41.0,-100.00,ESE,107,1.0,3.0,97,0.01,,,-99.99,,2013-01-16 18:23:00,
2013-01-16 13:33:00,42.0,41.0,-100.00,ESE,109,1.0,2.0,97,0.00,,,-99.99,,2013-01-16 18:33:00,
2013-01-16 13:42:00,42.0,41.0,-100.00,ESE,109,1.0,2.0,97,0.00,,,-99.99,,2013-01-16 18:42:00,
2013-01-16 13:53:00,42.0,42.0,-100.00,ESE,112,2.0,3.0,97,0.00,,,-99.99,,2013-01-16 18:53:00,
2013-01-16 14:03:00,42.0,42.0,-100.00,ESE,112,2.0,3.0,97,0.00,,,-99.99,,2013-01-16 19:03:00,
2013-01-16 14:13:00,43.0,42.0,-100.00,ESE,107,1.0,1.0,97,0.00,,,-99.99,,2013-01-16 19:13:00,
2013-01-16 14:23:00,43.0,42.0,-100.00,ESE,107,1.0,1.0,97,0.00,,,-99.99,,2013-01-16 19:23:00,
2013-01-16 14:33:00,43.0,42.0,-100.00,ESE,114,1.0,2.0,97,0.00,,,-99.99,,2013-01-16 19:33:00,
2013-01-16 14:43:00,43.0,42.0,-100.00,ESE,114,1.0,2.0,97,0.00,,,-99.99,,2013-01-16 19:43:00,
2013-01-16 14:53:00,43.0,42.0,-100.00,ESE,120,2.0,5.0,97,0.00,,,-99.99,,2013-01-16 19:53:00,
2013-01-16 15:03:00,43.0,42.0,-100.00,ESE,120,2.0,5.0,97,0.00,,,-99.99,,2013-01-16 20:03:00,
2013-01-16 15:12:00,44.0,44.0,-100.00,ESE,121,1.0,2.0,97,0.00,,,-99.99,,2013-01-16 20:12:00,
2013-01-16 15:23:00,44.0,44.0,-100.00,ESE,121,1.0,2.0,97,0.00,,,-99.99,,2013-01-16 20:23:00,
2013-01-16 15:33:00,45.0,44.0,-100.00,ESE,123,2.0,4.0,97,0.00,,,-99.99,,2013-01-16 20:33:00,
2013-01-16 15:43:00,45.0,44.0,-100.00,ESE,123,2.0,4.0,97,0.00,,,-99.99,,2013-01-16 20:43:00,
2013-01-16 15:53:00,46.0,45.0,-100.00,ESE,114,2.0,3.0,96,0.00,,,-99.99,,2013-01-16 20:53:00,
2013-01-16 16:03:00,46.0,45.0,-100.00,ESE,114,2.0,3.0,96,0.00,,,-99.99,,2013-01-16 21:03:00,
2013-01-16 16:12:00,46.0,45.0,-100.00,ESE,112,0.0,1.0,96,0.00,,,-99.99,,2013-01-16 21:12:00,
2013-01-16 16:23:00,46.0,45.0,-100.00,ESE,112,0.0,1.0,96,0.00,,,-99.99,,2013-01-16 21:23:00,
2013-01-16 16:33:00,46.0,45.0,-100.00,ESE,117,1.0,2.0,96,0.00,,,-99.99,,2013-01-16 21:33:00,
2013-01-16 16:43:00,46.0,45.0,-100.00,ESE,117,1.0,2.0,96,0.00,,,-99.99,,2013-01-16 21:43:00,
2013-01-16 16:53:00,47.0,45.0,-100.00,ESE,116,0.0,1.0,96,0.00,,,-99.99,,2013-01-16 21:53:00,
2013-01-16 17:03:00,47.0,45.0,-100.00,ESE,116,0.0,1.0,96,0.00,,,-99.99,,2013-01-16 22:03:00,
2013-01-16 17:12:00,47.0,46.0,-100.00,ESE,106,1.0,4.0,96,0.00,,,-99.99,,2013-01-16 22:12:00,
2013-01-16 17:23:00,47.0,46.0,-100.00,ESE,106,1.0,4.0,96,0.00,,,-99.99,,2013-01-16 22:23:00,
2013-01-16 17:33:00,47.0,46.0,-100.00,East,97,3.0,4.0,96,0.00,,,-99.99,,2013-01-16 22:33:00,
2013-01-16 17:43:00,47.0,46.0,-100.00,East,97,3.0,4.0,96,0.00,,,-99.99,,2013-01-16 22:43:00,
2013-01-16 17:53:00,47.0,46.0,-100.00,ESE,114,0.0,1.0,96,0.00,,,-99.99,,2013-01-16 22:53:00,
2013-01-16 18:03:00,47.0,46.0,-100.00,ESE,114,0.0,1.0,96,0.00,,,-99.99,,2013-01-16 23:03:00,
2013-01-16 18:12:00,47.0,46.0,-100.00,ESE,110,0.0,1.0,96,0.00,,,-99.99,,2013-01-16 23:12:00,
2013-01-16 18:23:00,47.0,46.0,-100.00,ESE,110,0.0,1.0,96,0.00,,,-99.99,,2013-01-16 23:23:00,
2013-01-16 18:33:00,47.0,46.0,-100.00,ESE,112,0.0,1.0,96,0.00,,,-99.99,,2013-01-16 23:33:00,
2013-01-16 18:43:00,47.0,46.0,-100.00,ESE,112,0.0,1.0,96,0.00,,,-99.99,,2013-01-16 23:43:00,
2013-01-16 18:53:00,47.0,46.0,-100.00,ESE,114,1.0,2.0,97,0.00,,,-99.99,,2013-01-16 23:53:00,
2013-01-16 19:02:00,47.0,46.0,-100.00,ESE,114,1.0,2.0,97,0.00,,,-99.99,,2013-01-17 00:02:00,
2013-01-16 19:12:00,47.0,46.0,-100.00,ESE,106,1.0,2.0,97,0.00,,,-99.99,,2013-01-17 00:12:00,
2013-01-16 19:22:00,47.0,46.0,-100.00,ESE,106,1.0,2.0,97,0.00,,,-99.99,,2013-01-17 00:22:00,
2013-01-16 19:32:00,47.0,46.0,-100.00,ESE,109,1.0,1.0,97,0.00,,,-99.99,,2013-01-17 00:32:00,
2013-01-16 19:42:00,47.0,46.0,-100.00,ESE,109,1.0,1.0,97,0.00,,,-99.99,,2013-01-17 00:42:00,
2013-01-16 19:53:00,47.0,46.0,-100.00,ESE,112,0.0,1.0,97,0.00,,,-99.99,,2013-01-17 00:53:00,
2013-01-16 20:02:00,47.0,46.0,-100.00,ESE,112,0.0,1.0,97,0.00,,,-99.99,,2013-01-17 01:02:00,
2013-01-16 20:12:00,47.0,47.0,-100.00,ESE,103,1.0,2.0,97,0.00,,,-99.99,,2013-01-17 01:12:00,
2013-01-16 20:22:00,47.0,47.0,-100.00,ESE,103,1.0,2.0,97,0.00,,,-99.99,,2013-01-17 01:22:00,
2013-01-16 20:33:00,47.0,47.0,-100.00,ESE,110,1.0,2.0,97,0.00,,,-99.99,,2013-01-17 01:33:00,
2013-01-16 20:42:00,47.0,47.0,-100.00,ESE,110,1.0,2.0,97,0.00,,,-99.99,,2013-01-17 01:42:00,
2013-01-16 20:53:00,48.0,47.0,-100.00,ESE,112,1.0,2.0,97,0.00,,,-99.99,,2013-01-17 01:53:00,
2013-01-16 21:02:00,48.0,47.0,-100.00,ESE,112,1.0,2.0,97,0.00,,,-99.99,,2013-01-17 02:02:00,
2013-01-16 21:12:00,48.0,47.0,-100.00,ESE,113,1.0,2.0,97,0.00,,,-99.99,,2013-01-17 02:12:00,
2013-01-16 21:22:00,48.0,47.0,-100.00,ESE,116,0.0,2.0,97,0.00,,,-99.99,,2013-01-17 02:22:00,
2013-01-16 21:32:00,48.0,47.0,-100.00,ESE,116,0.0,2.0,97,0.00,,,-99.99,,2013-01-17 02:32:00,
2013-01-16 21:43:00,48.0,47.0,-100.00,ESE,116,0.0,2.0,97,0.00,,,-99.99,,2013-01-17 02:43:00,
2013-01-16 21:52:00,48.0,47.0,-100.00,ESE,116,0.0,2.0,97,0.00,,,-99.99,,2013-01-17 02:52:00,
2013-01-16 22:03:00,48.0,47.0,-100.00,East,97,1.0,4.0,97,0.00,,,-99.99,,2013-01-17 03:03:00,
2013-01-16 22:12:00,48.0,47.0,-100.00,East,97,1.0,4.0,97,0.00,,,-99.99,,2013-01-17 03:12:00,
2013-01-16 22:20:00,48.0,47.0,-100.00,ESE,109,1.0,2.0,97,0.00,,,-99.99,,2013-01-17 03:20:00,
2013-01-16 22:22:00,48.0,47.0,-100.00,East,97,1.0,4.0,97,0.00,,,-99.99,,2013-01-17 03:22:00,
2013-01-16 22:33:00,48.0,47.0,-100.00,East,97,2.0,3.0,97,0.00,,,-99.99,,2013-01-17 03:33:00,
2013-01-16 22:43:00,48.0,47.0,-100.00,East,97,2.0,3.0,97,0.00,,,-99.99,,2013-01-17 03:43:00,
2013-01-16 22:53:00,48.0,47.0,-100.00,ESE,109,1.0,2.0,97,0.00,,,-99.99,,2013-01-17 03:53:00,
2013-01-16 23:02:00,48.0,47.0,-100.00,ESE,109,1.0,2.0,97,0.00,,,-99.99,,2013-01-17 04:02:00,
2013-01-16 23:12:00,48.0,47.0,-100.00,ESE,109,1.0,2.0,97,0.00,,,-99.99,,2013-01-17 04:12:00,
2013-01-16 23:33:00,48.0,47.0,-100.00,ESE,109,1.0,2.0,97,0.00,,,-99.99,,2013-01-17 04:33:00,
2013-01-16 23:43:00,48.0,47.0,-100.00,ESE,109,1.0,2.0,97,0.00,,,-99.99,,2013-01-17 04:43:00,
2013-01-16 23:53:00,48.0,47.0,-100.00,ESE,106,0.0,1.0,97,0.00,,,-99.99,,2013-01-17 04:53:00,